Location: Bretagne
(43.8474°N, 0.4650°W)
Time: 14:45:51
(UTC+00:00)

Cosmos 1603 - Visible Passes

Search period start: 19 April 2026 00:00
Search period end: 29 April 2026 00:00
Orbit: 829 x 859 km, 71.0° (Epoch: 19 April)

Date Brightness Start Highest point End Pass type
(mag) Time Alt. Az. Time Alt. Az. Time Alt. Az.
19 Apr 5.9 00:49:02 15° WNW 00:50:17 16° NW 00:53:39 10° N visible
19 Apr 4.5 22:52:34 47° NNE 22:52:34 47° NNE 22:56:33 10° NNE visible
20 Apr 5.9 00:34:22 15° WNW 00:35:51 16° NW 00:39:20 10° N visible
20 Apr 4.2 22:37:49 54° NNE 22:37:49 54° NNE 22:42:10 10° NNE visible
21 Apr 5.9 00:19:37 15° WNW 00:21:25 17° NW 00:25:00 10° N visible
21 Apr 5.8 20:41:11 10° ENE 20:41:11 10° ENE 20:41:17 10° ENE visible
21 Apr 3.9 22:22:58 65° NNE 22:22:58 65° NNE 22:27:47 10° NNE visible
22 Apr 6.0 00:04:45 14° WNW 00:07:00 17° NW 00:10:41 10° N visible
22 Apr 5.7 20:26:12 11° ENE 20:26:12 11° ENE 20:26:40 10° ENE visible
22 Apr 3.6 22:07:59 80° NE 22:07:59 80° NE 22:13:23 10° NNE visible
22 Apr 6.0 23:49:46 13° W 23:52:34 18° NW 23:56:22 10° N visible
23 Apr 5.6 20:11:03 11° E 20:11:03 11° E 20:12:02 10° ENE visible
23 Apr 3.5 21:52:48 75° S 21:53:17 85° ESE 21:59:00 10° NNE visible
23 Apr 6.0 23:34:34 11° W 23:38:08 18° NW 23:42:02 10° N visible
24 Apr 5.5 19:55:38 11° E 19:55:48 11° E 19:57:20 10° E visible
24 Apr 3.5 21:37:22 50° SSW 21:38:53 82° ESE 21:44:36 10° NNE visible
24 Apr 6.0 23:19:46 10° W 23:23:43 19° NW 23:27:42 10° N visible
25 Apr 5.5 19:40:22 10° ESE 19:41:26 11° E 19:42:31 10° E visible
25 Apr 3.5 21:21:29 29° SSW 21:24:30 79° ESE 21:30:13 10° NNE visible
25 Apr 6.0 23:05:16 10° W 23:09:17 20° NW 23:13:22 10° N visible
26 Apr 7.0 04:30:47 10° NNE 04:31:45 10° NE 04:32:42 10° NE visible
26 Apr 3.6 21:04:42 11° SSW 21:10:07 76° ESE 21:15:50 10° NNE visible
26 Apr 6.0 22:50:45 10° W 22:54:53 20° NW 22:59:02 10° N visible
27 Apr 7.1 04:17:00 10° NNE 04:17:18 10° NE 04:17:36 10° NE visible
27 Apr 3.6 20:50:08 10° SSW 20:55:45 73° ESE 21:01:26 10° NNE visible
27 Apr 6.0 22:36:16 10° W 22:40:27 21° NW 22:44:41 10° N visible
28 Apr 3.6 20:35:46 10° SSW 20:41:21 70° ESE 20:47:03 10° NNE visible
28 Apr 6.0 22:21:46 10° W 22:26:02 21° NW 22:30:21 10° N visible
